This is the latest recevied weather packets stored in our database for station/object IZ7EXI-13. If no packets are shown the sender has not sent any weather packets the latest 10 day(s).
| Time | Temp. | Humidity | Pressure | Rain* | Wind** | Luminosity | Snow |
|---|---|---|---|---|---|---|---|
| 1788367981 | 32.78° C | 57% | 1017.9 hPa | - | - | - | - |
| 1788367950 | 32.78° C | 57% | 1017.9 hPa | - | - | - | - |
| 1788367080 | 32.78° C | 55% | 1018 hPa | - | - | - | - |
| 1788367050 | 32.78° C | 55% | 1018 hPa | - | - | - | - |
| 1788366174 | 33.33° C | 53% | 1018 hPa | - | - | - | - |
| 1788366150 | 33.33° C | 53% | 1018 hPa | - | - | - | - |
| 1788365283 | 33.89° C | 52% | 1017.9 hPa | - | - | - | - |
| 1788365250 | 33.89° C | 52% | 1017.9 hPa | - | - | - | - |
| 1788364381 | 33.89° C | 53% | 1018 hPa | - | - | - | - |
| 1788364349 | 33.89° C | 53% | 1018 hPa | - | - | - | - |
| 1788363449 | 32.78° C | 56% | 1018 hPa | - | - | - | - |
| 1788362549 | 32.22° C | 56% | 1018.1 hPa | - | - | - | - |
| 1788361649 | 32.78° C | 56% | 1018 hPa | - | - | - | - |
| 1788360748 | 32.22° C | 57% | 1018 hPa | - | - | - | - |
| 1788359885 | 32.22° C | 56% | 1018.2 hPa | - | - | - | - |
| 1788359848 | 32.22° C | 56% | 1018.2 hPa | - | - | - | - |
| 1788358948 | 32.78° C | 54% | 1018.2 hPa | - | - | - | - |
| 1788358048 | 32.78° C | 53% | 1018.2 hPa | - | - | - | - |
| 1788357148 | 33.33° C | 49% | 1018 hPa | - | - | - | - |
| 1788356247 | 33.33° C | 51% | 1018.2 hPa | - | - | - | - |
| 1788355347 | 33.33° C | 54% | 1018.4 hPa | - | - | - | - |
| 1788354447 | 33.33° C | 55% | 1018.5 hPa | - | - | - | - |
| 1788353547 | 33.33° C | 55% | 1018.6 hPa | - | - | - | - |
| 1788352646 | 33.33° C | 56% | 1018.9 hPa | - | - | - | - |
| 1788351746 | 32.78° C | 57% | 1019 hPa | - | - | - | - |
* Rain since midnight (hover to see other rain measurements)
** Current wind speed in m/s (hover to see current wind gust speed)